TimeEST,TemperatureF,Dew PointF,Humidity,Sea Level PressureIn,VisibilityMPH,Wind Direction,Wind SpeedMPH,Gust SpeedMPH,PrecipitationIn,Events,Conditions,WindDirDegrees,DateUTC
12:53 AM,75.0,68.0,79,30.08,10.0,NNE,3.5,-,N/A,,Clear,20,2013-11-11 05:53:00
1:53 AM,73.9,69.1,85,30.07,10.0,NNW,4.6,-,N/A,,Mostly Cloudy,340,2013-11-11 06:53:00
2:53 AM,72.0,69.1,91,30.06,10.0,North,4.6,-,N/A,,Clear,350,2013-11-11 07:53:00
3:53 AM,72.0,68.0,87,30.06,10.0,North,4.6,-,N/A,,Clear,360,2013-11-11 08:53:00
4:53 AM,72.0,68.0,87,30.06,10.0,North,5.8,-,N/A,,Clear,360,2013-11-11 09:53:00
5:53 AM,72.0,68.0,87,30.08,10.0,North,5.8,-,N/A,,Clear,350,2013-11-11 10:53:00
6:53 AM,73.0,68.0,84,30.09,10.0,North,4.6,-,N/A,,Mostly Cloudy,10,2013-11-11 11:53:00
7:53 AM,75.9,69.1,79,30.09,10.0,North,5.8,-,N/A,,Partly Cloudy,360,2013-11-11 12:53:00
8:53 AM,81.0,70.0,69,30.11,10.0,East,11.5,-,N/A,,Scattered Clouds,80,2013-11-11 13:53:00
9:23 AM,82.4,69.8,66,30.11,10.0,East,16.1,20.7,N/A,,Mostly Cloudy,80,2013-11-11 14:23:00
9:34 AM,82.4,69.8,66,30.11,10.0,East,13.8,23.0,N/A,,Mostly Cloudy,80,2013-11-11 14:34:00
9:53 AM,82.9,70.0,65,30.12,10.0,East,19.6,-,N/A,,Mostly Cloudy,90,2013-11-11 14:53:00
10:53 AM,84.0,70.0,63,30.12,10.0,East,15.0,-,N/A,,Scattered Clouds,80,2013-11-11 15:53:00
11:53 AM,84.0,70.0,63,30.10,10.0,NE,12.7,-,N/A,,Mostly Cloudy,50,2013-11-11 16:53:00
12:53 PM,84.9,69.1,59,30.08,10.0,ENE,15.0,-,N/A,,Clear,70,2013-11-11 17:53:00
1:53 PM,82.9,69.1,63,30.07,10.0,ENE,12.7,-,N/A,,Partly Cloudy,70,2013-11-11 18:53:00
2:53 PM,82.9,69.1,63,30.06,10.0,ENE,12.7,20.7,N/A,,Mostly Cloudy,60,2013-11-11 19:53:00
3:53 PM,80.1,68.0,67,30.06,10.0,East,13.8,-,N/A,,Partly Cloudy,80,2013-11-11 20:53:00
4:53 PM,79.0,66.9,66,30.06,10.0,ENE,12.7,-,N/A,,Clear,70,2013-11-11 21:53:00
5:53 PM,78.1,66.0,66,30.06,10.0,ENE,9.2,-,N/A,,Clear,70,2013-11-11 22:53:00
6:53 PM,78.1,66.0,66,30.06,10.0,NE,5.8,-,N/A,,Clear,50,2013-11-11 23:53:00
7:53 PM,77.0,66.9,71,30.07,10.0,ENE,6.9,-,N/A,,Clear,70,2013-11-12 00:53:00
8:53 PM,75.9,66.9,74,30.07,10.0,ENE,6.9,-,N/A,,Clear,70,2013-11-12 01:53:00
9:53 PM,75.9,66.9,74,30.09,10.0,NE,4.6,-,N/A,,Clear,50,2013-11-12 02:53:00
10:53 PM,75.0,66.9,76,30.09,10.0,NE,4.6,-,N/A,,Clear,50,2013-11-12 03:53:00
11:53 PM,75.0,66.9,76,30.07,10.0,NE,4.6,-,N/A,,Clear,50,2013-11-12 04:53:00